Location: Kouchibouguac National Park
(46.7962°N, 64.9642°W)
Time: 21:06:44
(UTC-03:00)

ISS - Visible Passes

Search period start: 22 October 2019 00:00
Search period end: 01 November 2019 00:00
Orbit: 411 x 421 km, 51.6° (Epoch: 23 October)

Date Brightness Start Highest point End Pass type
(mag) Time Alt. Az. Time Alt. Az. Time Alt. Az.
23 Oct -1.1 07:15:09 10° S 07:17:46 21° SE 07:20:23 10° E visible
24 Oct -0.7 06:27:43 10° SSE 06:29:25 13° SE 06:31:07 10° ESE visible
25 Oct -2.8 07:13:53 10° SW 07:17:09 48° SSE 07:20:24 10° ENE visible
26 Oct -2.0 06:25:40 10° SSW 06:28:40 30° SE 06:31:41 10° ENE visible
27 Oct -1.5 05:39:41 19° SSE 05:40:14 20° SE 05:42:45 10° E visible
27 Oct -3.8 07:13:16 10° WSW 07:16:39 80° NNW 07:20:02 10° ENE visible
28 Oct -3.6 06:26:28 28° SW 06:28:04 70° SSE 06:31:26 10° ENE visible
29 Oct -2.4 05:40:10 38° ESE 05:40:10 38° ESE 05:42:45 10° ENE visible
29 Oct -3.3 07:13:05 11° W 07:16:16 47° NNW 07:19:32 10° ENE visible
30 Oct -0.2 04:53:47 11° E 04:53:47 11° E 04:53:58 10° E visible
30 Oct -3.7 06:26:41 42° W 06:27:34 61° NNW 06:30:56 10° ENE visible
31 Oct -2.2 05:40:11 36° ENE 05:40:11 36° ENE 05:42:18 10° ENE visible
31 Oct -2.8 07:13:05 12° WNW 07:15:56 35° N 07:19:05 10° ENE visible
